CZ-4C R/B, 43264

Orbit data source: Space-Track

CZ-4C R/B, 43264 is space debris in SSO originally from a launch on Sat, 31 Mar 2018 UTC launched from the Taiyaun Space Center, China (TSC). Debris objects in space refer to the collection of defunct objects orbiting the Earth. Examples of debris include non-operational satellites, rocket bodies, and fragments generated from explosions, collisions, or faulty payload assembly.

Loading next visibility...
Identifier
43264, 2018-031F
Orbit
SSO
Last TLE update
15 hours ago
Origin
Manufacturer
SAST
Mission
Spacecraft
Bus & Motor
CZ-4 STAGE 3, Unknown motor
Mass
~1,000 kg wet, ~1,000 kg dry
Launch date (UTC)
2018-03-31 (7 years ago)
Launch vehicle
Unknown
Launch site
Taiyaun Space Center, China (TSC)
Object type
Payload
Rocket body
Debris
Shape & HBR
Cyl, 2.9 m
Radar Cross Section
7.676 m², Large (>1 m²)

Expand to show TLE details & history

TLE from 15 hours ago
0 CZ-4C R/B
1 43264U 18031F   25129.23744459  .00007937  00000-0  36226-3 0  9997
2 43264  98.1599  13.2923 0088248 346.2596  13.6234 15.17440741389875
Epoch: 2025-05-09T05:41Z
Definitive object data (Epoch: 2025-05-09T05:41:55.212Z)
Latitude
-0.00004°
Longitude
60.51579°
Altitude
457.554 km
Speed
7.671 km/s
True Right ascension
00h 53m 10s
True Declination
0° 00' 00"
Sunlit
Object was in daylight at TLE epoch
Visualization TLE readout
Latitude
-35.2404°
Longitude
-124.58469°
Altitude
564.656 km
Speed
7.557 km/s
Apparent Right ascension
14h 37m 24s
Apparent Declination
-42° 32' 47"
Sunlit
Object is in full shadow
Visualization observer readout
Local Sidereal Time
05:04:46
Azimuth
107.62° ESE
Elevation
-62.388°
Doppler factor
1
Orbital elements
Apogee altitude
571.373 km
Perigee altitude
449.79 km
Semi-major axis
6,888.718 km
Eccentricity
0.0088248
Inclination
98.1599°
RAAN
13.2923°
Arg. of periapsis
346.2596°
True anomaly
13.86417°
Mean anomaly
13.6234°
Eccentric anomaly
13.74352°
Mean motion
3.79608 °/min
BSTAR
0.00036226
Orbital period
94.83 mins
Loading maneuver chart data...
Loading SW <> Apogee altitude chart data...
Loading historical data...
Loading historical data...
Loading historical data...
Loading historical data...
Loading historical data...
Loading historical data...
Loading historical data...

CZ-4C R/B Visibility forecast

Observer location: undefined°, undefined°

Span
Click to sort rows by Start time (UTC) header in descending order
Start Az.
Max El. time (UTC)
Max El. Az.
Max El.
End time (UTC)
End Az.
6 mins2025-05-10 04:25:34.278Z43.58° NE2025-05-10 04:28:34.278Z100.095° ESE23.81°2025-05-10 04:31:34.278Z152.164° SSE
4 mins2025-05-10 06:00:34.278Z325.738° NNW2025-05-10 06:02:34.278Z283.549° WNW21.28°2025-05-10 06:04:34.278Z247.756° W
4 mins2025-05-10 16:39:34.278Z206.147° SW2025-05-10 16:41:34.278Z279.905° WNW32.133°2025-05-10 16:43:34.278Z325.106° NNW
|